Regional Weather Roundup
Issued by NWS

Home | Current Version | Previous Version | Graphics & Text | Print | Product List | Glossary On
Versions: 1 2 3 4 5 6 7 8 9 10 11 12 13 14 15 16 17 18 19 20 21 22 23 24 25 26 27 28 29 30 31 32 33 34 35 36 37 38 39 40 41 42 43 44 45 46 47 48 49 50
000
ASUS43 KOAX 011510
RWRNE

WEATHER ROUNDUP FOR NEBRASKA
NATIONAL WEATHER SERVICE OMAHA NE
1000 AM CDT MON SEP 01 2014

NOTES: SATELLITE DATA IS BEING USED TO AUGMENT CLOUD COVER ABOVE
       12000 FEET.
       "FAIR" INDICATES FEW OR NO CLOUDS BELOW 12,000 FEET WITH NO
       SIGNIFICANT WEATHER AND/OR OBSTRUCTIONS TO VISIBILITY.

  * THESE STATIONS DO NOT REPORT WEATHER SUCH AS RAIN...SNOW OR FOG.

NEZ001>004-019>022-054>056-011600-
NEBRASKA PANHANDLE

CITY           SKY/WX    TMP DP  RH WIND       PRES   REMARKS
SCOTTSBLUFF    PTSUNNY   57  51  80 CALM      30.01S
ALLIANCE       MOSUNNY   61  51  70 W8        29.99S
CHADRON        MOSUNNY   61  52  72 SW5       29.96S
KIMBALL        MOSUNNY   60  48  66 W6        30.04S
SIDNEY         MOSUNNY   63  47  55 W5        30.04S
$$

NEZ057>060-069>072-079>082-011600-
SOUTHWEST NEBRASKA

CITY           SKY/WX    TMP DP  RH WIND       PRES   REMARKS
NORTH PLATTE   SUNNY     60  53  77 W6        29.98R
IMPERIAL       MOSUNNY   61  52  72 W6        30.00S
LEXINGTON      SUNNY     62  57  86 W7        29.96R
MCCOOK         MOSUNNY   62  54  74 W7        29.98R
OGALLALA       SUNNY     58  52  80 W6        30.00S
$$

NEZ005>010-023>029-035>040-094-011600-
NORTH CENTRAL NEBRASKA

CITY           SKY/WX    TMP DP  RH WIND       PRES   REMARKS
VALENTINE      SUNNY     63  54  72 W12       29.93R
AINSWORTH      SUNNY     64  54  70 W13       29.92R
BROKEN BOW       N/A     67  55  65 VRB5      29.93R
O`NEILL        SUNNY     65  59  78 NW9       29.88S
ORD            SUNNY     65  55  70 NW7       29.89R
THEDFORD       SUNNY     64  56  75 W7        29.96R
$$

NEZ041-046>049-061>064-073>077-083>087-011600-
SOUTH CENTRAL NEBRASKA

CITY           SKY/WX    TMP DP  RH WIND       PRES   REMARKS
GRAND ISLAND   SUNNY     67  57  70 W8        29.91R
AURORA         MOSUNNY   64  59  83 W5        29.90R
HASTINGS       MOSUNNY   64  55  72 W7        29.92R
HEBRON         MOSUNNY   64  57  79 CALM      29.91R
HOLDREGE       MOSUNNY   62  56  79 CALM      29.96R
KEARNEY *      MOSUNNY   63  55  77 W7        29.93R
YORK           MOSUNNY   64 N/A N/A W6        29.90R
$$

NEZ011>018-030>034-042>045-011600-
NORTHEAST NEBRASKA

CITY           SKY/WX    TMP DP  RH WIND       PRES   REMARKS
NORFOLK        SUNNY     67  60  78 NW9       29.85R
ALBION         SUNNY     65  57  76 NW9       29.87R
BLAIR          PTSUNNY   68  63  83 SW7       29.84R
FREMONT        PTSUNNY   68  63  82 W5        29.86R
TEKAMAH        PTSUNNY   68  63  84 VRB6      29.82R
WAYNE          MOSUNNY   67  62  84 NW12      29.85R
$$

NEZ050>053-065>068-078-088>093-011600-
SOUTHEAST NEBRASKA

CITY           SKY/WX    TMP DP  RH WIND       PRES   REMARKS
LINCOLN        MOSUNNY   70  61  73 NW7       29.88R
OMAHA EPPLEY   MOSUNNY   71  62  73 NW9       29.84R
BEATRICE       SUNNY     66  62  85 NW8       29.88F
FALLS CITY     PTSUNNY   73  65  75 W14       29.86R
NEBRASKA CITY  SUNNY     69  64  83 NW9       29.87R
PLATTSMOUTH    CLOUDY    69  63  79 W8        29.86R
$$

NEZ044-045-051>053-067-011600-
OMAHA AREA

CITY           SKY/WX    TMP DP  RH WIND       PRES   REMARKS
OMAHA EPPLEY   MOSUNNY   71  62  73 NW9       29.84R
BLAIR          PTSUNNY   68  63  83 SW7       29.84R
FREMONT        PTSUNNY   68  63  82 W5        29.86R
MILLARD        MOSUNNY   70  63  79 NW7       29.85R
OFFUTT AFB     SUNNY     71  67  87 W8        29.84R
PLATTSMOUTH    CLOUDY    69  63  79 W8        29.86R
WAHOO          FAIR      69  61  76 W5        29.86R
$$



USA.gov is the U.S. government's official web portal to all federal, state and local government web resources and services.